Terminal Aerodrome Forecast
Issued by NWS Cheyenne, WY

Home | Current Version | Previous Version | Text Only | Print | Product List | Glossary On
Versions: 1 2 3 4 5 6 7 8 9 10 11 12 13 14 15 16 17 18 19 20 21 22 23 24 25 26 27 28 29 30 31 32 33 34 35 36 37 38 39 40 41 42
217
FTUS45 KCYS 262113 AAB
TAFCYS
TAF AMD
KCYS 262113Z 2621/2718 36014G24KT P6SM VCSH BKN060
      TEMPO 2621/2624 OVC019
     FM270000 33008KT P6SM BKN060
     FM270600 24005KT P6SM BKN060=

USA.gov is the U.S. government's official web portal to all federal, state and local government web resources and services.